Regional Weather Roundup
Issued by NWS

Home | Current Version | Previous Version | Text Only | Print | Product List | Glossary On
Versions: 1 2 3 4 5 6 7 8 9 10 11 12 13 14 15 16 17 18 19 20 21 22 23 24 25 26 27 28 29 30 31 32 33 34 35 36 37 38 39 40 41 42 43 44 45 46 47 48 49 50
000
ASUS43 KLMK 270402
RWRKY
KENTUCKY REGIONAL WEATHER ROUNDUP
NATIONAL WEATHER SERVICE LOUISVILLE KY
1200 AM EDT WED JUL 27 2016

NOTE "FAIR" INDICATES FEW OR NO CLOUDS BELOW 12,000 FEET
WITH NO SIGNIFICANT WEATHER AND/OR OBSTRUCTIONS TO VISIBILITY.

KYZ001>023-026-027-061>063-070>075-270500-
WESTERN AND SOUTH CENTRAL KENTUCKY

CITY           SKY/WX    TMP DP  RH WIND       PRES   REMARKS
PADUCAH        CLOUDY    76  73  91 CALM      29.99S
HENDERSON      CLOUDY    77  73  88 CALM      29.98F
OWENSBORO      PTCLDY    79  78  96 CALM      29.99F
HOPKINSVILLE   CLOUDY    79  74  83 N5        29.99S
BOWLING GREEN  PTCLDY    82  77  84 NE3       29.99F HX  90
GLASGOW        NOT AVBL
$$

KYZ024-025-028>034-038-045-046-053-270500-
NORTH CENTRAL KENTUCKY

CITY           SKY/WX    TMP DP  RH WIND       PRES   REMARKS
LOUISVILLE/SDF CLOUDY    80  72  76 E3        30.00S
LOUISVILLE/LOU PTCLDY    79  71  76 CALM      30.01S
FORT KNOX      PTCLDY    74  73  96 N3        30.00S
$$

KYZ035>037-039>044-047>052-055>060-089>105-270500-
NORTHEAST KENTUCKY

CITY           SKY/WX    TMP DP  RH WIND       PRES   REMARKS
LEXINGTON      CLEAR     77  72  84 CALM      30.03S
COVINGTON      MOCLDY    76  74  93 CALM      30.02S
FRANKFORT      CLEAR     76  73  91 CALM      30.01S
$$

KYZ054-064>069-076>088-106>120-270500-
SOUTHEAST KENTUCKY

CITY           SKY/WX    TMP DP  RH WIND       PRES   REMARKS
JACKSON        CLOUDY    75  71  87 CALM      30.05S
LONDON         CLEAR     79  72  79 CALM      30.04S
SOMERSET       PTCLDY    77  77 100 CALM      30.04S
MIDDLESBORO    PTCLDY    76  72  85 CALM      30.06R
MONTICELLO     CLEAR    N/A N/A N/A NE9       30.05S
$$




USA.gov is the U.S. government's official web portal to all federal, state and local government web resources and services.